TRANSIT 10 DEB

Satellite information

Favourite Embed

Satellite Type and Status

DEBRISIN ORBIT

Key statistics

Satellite TRANSIT 10 DEB at a glance.

Uptime

21907

Days in orbit

Revolutions

≈ 14.1

Per day

Orbit

LEO

Low Earth Orbit

Inclination

89.1

Latest

Satellite identification and parameters

Extended collection of information and parameters for TRANSIT 10 DEB.

Object identification

Identified? True

Debris? True

Object name: TRANSIT 10 DEB

International designator: 1965-109E

Object number (NORAD): 24705

Object ID (CCSDS): 24705

Country: UNITED STATES OF AMERICA (US)

Current information (Y/N): Y

RCS size: MEDIUM

Orbital parameters

Period: 101.998 minutes

Inclination: 89.066 deg

SMA: 7231.399 km

Apoapsis: 910.781 km

Periapsis: 795.748 km

RAAN: 217.7679 deg

Eccentricy: 0.00795372

Argument of periapsis: 305.3916 deg

Mean anomaly: 119.752 deg

Mean motion: 14.11787266 rev/day

Mean motion (dot): 0.00003654 rev/day2

B* drag term: 0.0019397738 1/REarth

Two-line elements (TLE)

Creation date: Dec. 14, 2025, 3:07 a.m.

Reference frame: TEME

Reference center: EARTH

Epoch: Dec. 13, 2025, 4:54 p.m. UTC

TLE line 0: 0 TRANSIT 10 DEB

TLE line 1: 1 24705U 65109E 25347.70437131 .00003654 00000-0 19398-2 0 9996

TLE line 2: 2 24705 89.0660 217.7679 0079537 305.3916 119.7520 14.11787266474661

Live tracking on map

Real-time ground track for satellite TRANSIT 10 DEB.

In-orbit conjunctions

A list of the most updated potential collisions computed for object TRANSIT 10 DEB.

Target Orbit TCA Probability of collision Miss distance Type
FENGYUN 1C DEB SSO 2025-07-09 12:04:46 0.0001409006 173.0 (m) DEBRIS

Associated space launch

The Transit-O series of satellites that closely followed the design of Transit 5C-1 were also called “Oscars” (Oscar is the phonetic alphabet for “O”, i. e., operational). They were also called NNS (Navy Navigation Satellite) or shortened NavSat.

TRANSIT 10 DEB was lifted into orbit during the mission ‘Scout A | Transit-O 6’, on board a Scout A space rocket.

The launch took place on Dec. 22, 1965, 4:33 a.m. from Space Launch Complex 5.

For more information about the launch, click the button.

Launch to space Scout A | Transit-O 6
Scout A | Transit-O 6

Agency: N/A

Status: Launch Successful

Launch date: Dec. 22, 1965, 4:33 a.m. UTC

Rocket: Scout A

Launch pad: Space Launch Complex 5

Location: Vandenberg SFB, CA, USA

...

Latest news about this satellite

There are no fresh news available about this satellite. Check back as we update our databases every day.


Newsletter sign-up

Weekly statistics, charts and insights to help you stay on top of the space industry.